FW0916 Weather Reports


time (UTC)temp
F
wind
direction
speed
knots
gust
knots
rain 1hr
in
rain 24hr
in
rain mn
in
humidity
%
barometer
mb
20260504044521 38 182 7.8 21.7 0.02 0.71 0.02 92 975.3
20260504043022 38 205 7.8 19.1 0.02 0.70 0.02 92 976.0
20260504041530 38 140 9.6 21.7 0.01 0.69 0.01 92 976.8
20260504040013 38 144 7.8 20.9 0.00 0.69 0.00 91 977.4
20260504034514 38 178 13.0 24.3 0.00 0.69 0.00 91 978.1
20260504033008 39 179 9.6 20.9 0.00 0.69 0.00 90 979.0
20260504031506 39 137 12.2 20.0 0.00 0.69 0.00 90 979.6
20260504030100 39 142 8.7 21.7 0.00 0.69 0.00 90 980.4
20260504024603 40 137 9.6 20.0 0.00 0.69 0.69 90 981.2
20260504023054 40 162 6.1 17.4 0.00 0.69 0.69 90 981.8
20260504021551 41 269 5.2 13.0 0.01 0.69 0.69 92 982.7
20260504020106 41 198 6.1 14.8 0.01 0.69 0.69 92 983.3
20260504014546 42 205 1.7 11.3 0.02 0.69 0.69 93 983.8
20260504013045 42 163 2.6 14.8 0.03 0.69 0.69 94 984.2
20260504011542 41 115 6.1 14.8 0.04 0.68 0.68 94 984.5
20260504010039 40 119 5.2 12.2 0.06 0.67 0.67 94 985.0
20260504004536 40 78 6.1 13.9 0.06 0.66 0.66 94 985.5
20260504003033 39 60 5.2 12.2 0.08 0.65 0.65 93 986.5
20260504001536 39 101 4.3 13.0 0.10 0.64 0.64 93 987.3
20260504000028 39 90 5.2 14.8 0.13 0.61 0.61 93 988.5
20260503234526 38 81 3.5 9.6 0.19 0.59 0.59 93 989.0
20260503233034 38 49 3.5 15.6 0.24 0.56 0.56 93 989.5
20260503231520 38 61 3.5 9.6 0.22 0.53 0.53 93 990.7
20260503230021 38 44 4.3 10.4 0.20 0.47 0.47 93 991.9
20260503224512 38 65 3.5 10.4 0.16 0.40 0.40 93 992.8
20260503223009 38 78 2.6 9.6 0.13 0.34 0.34 93 993.9
20260503221507 37 86 3.5 7.8 0.15 0.31 0.31 93 994.7
20260503220005 37 94 1.7 7.8 0.15 0.27 0.27 93 995.2
20260503214507 37 91 2.6 8.7 0.18 0.24 0.24 93 995.5
20260503213002 37 118 2.6 9.6 0.16 0.20 0.20 93 996.2
20260503211601 37 59 3.5 9.6 0.11 0.16 0.16 92 995.9
20260503210100 36 76 3.5 11.3 0.08 0.12 0.12 92 997.0
20260503204556 36 34 2.6 10.4 0.02 0.06 0.06 92 997.8
20260503203056 36 72 2.6 11.3 0.01 0.05 0.05 92 998.8
20260503201552 36 69 2.6 11.3 0.02 0.05 0.05 91 999.4
20260503200053 36 83 1.7 9.6 0.01 0.04 0.04 90 1000.8
20260503194555 38 49 2.6 9.6 0.01 0.04 0.04 90 1000.9
20260503193046 39 107 3.5 11.3 0.02 0.04 0.04 90 1001.1
20260503191546 39 45 4.3 11.3 0.02 0.03 0.03 89 1001.5
20260503190044 40 37 3.5 8.7 0.02 0.03 0.03 89 1002.8
20260503184537 41 76 2.6 8.7 0.02 0.03 0.03 88 1004.1
20260503183035 42 39 1.7 6.1 0.02 0.02 0.02 86 1005.1
20260503181532 43 68 2.6 7.0 0.00 0.01 0.01 83 1005.9
20260503180032 43 71 3.5 8.7 0.00 0.01 0.01 80 1005.7
20260503174528 44 56 1.7 7.0 0.00 0.01 0.01 79 1006.8
20260503173028 44 69 0.0 6.1 0.00 0.01 0.01 78 1008.0
20260503171522 44 24 0.9 4.3 0.00 0.01 0.01 77 1008.3
20260503140110 50 68 0.9 4.3 0.00 0.01 0.01 68 1011.8
20260503081502 31 225 0.0 0.0 0.00 0.00 0.00 93 1015.7
20260503071615 31 221 0.0 1.7 0.00 0.01 0.00 93 1015.9